Waarnemingen

Advertentie
Mijn weer
Kempten, Duitsland (10946): temperatuur & dauwpunt: 15.10.2018 17:00:00 - 21.10.2018 17:00:00 (CEST)Kempten, Duitsland (10946): temperatuur 5cm & temperatuur -5cm: 15.10.2018 17:00:00 - 21.10.2018 17:00:00 (CEST)Kempten, Duitsland (10946): temperatuur -20cm & temperatuur -100cm: 15.10.2018 17:00:00 - 21.10.2018 17:00:00 (CEST)Kempten, Duitsland (10946): windsnelheid & windstoten: 15.10.2018 17:00:00 - 21.10.2018 17:00:00 (CEST)Kempten, Duitsland (10946): windrichting: 15.10.2018 17:00:00 - 21.10.2018 17:00:00 (CEST)Kempten, Duitsland (10946): luchtdruk: 15.10.2018 17:00:00 - 21.10.2018 17:00:00 (CEST)Kempten, Duitsland (10946): zicht: 15.10.2018 17:00:00 - 21.10.2018 17:00:00 (CEST)Kempten, Duitsland (10946): Zonneschijnduur: 15.10.2018 17:00:00 - 21.10.2018 17:00:00 (CEST)Kempten, Duitsland (10946): neerslag: 15.10.2018 17:00:00 - 21.10.2018 17:00:00 (CEST)
Datum & Tijd tt [°C] td [°C] tt 5cm [°C] tt -5cm [°C] tt -20cm [°C] tt -100cm [°C] ff [km/u] ff [kn] fx [km/u] fx [kn] dd ppp [hPa] vv [km] sd [min] rr [mm]
21.10.2018 17:00:00 11,4 2,5 13,9 16,0 13,2 14,6 8 5 23 12 O 1025,6 10 60 0,0
21.10.2018 16:00:00 12,3 3,0 16,1 17,3 12,7 14,6 11 6 21 12 NO 1025,6 13 60 0,0
21.10.2018 15:00:00 12,7 4,2 17,5 17,8 12,1 14,6 11 6 24 13 ONO 1025,2 4,5 60 0,0
21.10.2018 14:00:00 12,2 4,8 17,1 17,0 11,5 14,6 11 6 25 14 NO 1025,8 9 60 0,0
21.10.2018 13:00:00 11,6 4,7 15,7 15,7 10,8 14,6 11 6 22 12 ONO 1026,7 9 59 0,0
21.10.2018 12:00:00 11,2 3,8 14,5 13,0 10,4 14,6 8 4 18 10 ONO 1027,2 12 26 0,0
21.10.2018 11:00:00 8,7 6,5 9,3 10,1 10,2 14,6 3 2 6 3 W 1028,0 4,9 0 0,0
21.10.2018 10:00:00 6,7 5,5 7,0 8,4 10,2 14,6 0 0 5 3 N 1028,8 3,1 0 0,0
21.10.2018 09:00:00 5,2 4,5 5,3 7,4 10,2 14,6 4 2 6 3 OZO 1029,0 2,2 0 0,0
21.10.2018 08:00:00 4,2 3,8 4,0 7,0 10,3 14,6 4 2 6 4 OZO 1029,1 2,1 0 0,0
21.10.2018 07:00:00 3,5 2,9 3,5 6,7 10,5 14,6 4 2 5 3 O 1029,3 2,0 0 0,0
21.10.2018 06:00:00 2,7 2,0 1,7 6,4 10,7 14,7 3 2 4 2 O 1029,8 2,7 0 0,0
21.10.2018 05:00:00 2,5 1,8 1,7 6,7 11,0 14,7 2 1 7 4 OZO 1030,0 2,4 0 0,0
21.10.2018 04:00:00 2,2 1,5 1,5 6,5 11,3 14,7 6 3 10 5 OZO 1030,1 2,6 0 0,0
21.10.2018 03:00:00 2,4 1,8 0,8 6,8 11,6 14,7 7 4 10 5 OZO 1030,4 2,1 0 0,0
21.10.2018 02:00:00 3,1 2,5 1,1 7,4 12,0 14,7 6 4 8 4 OZO 1030,7 1,7 0 0,0
21.10.2018 01:00:00 3,8 3,0 2,7 8,0 12,3 14,7 6 3 10 5 OZO 1030,9 1,9 0 0,0
21.10.2018 00:00:00 4,3 3,6 2,6 8,6 12,7 14,7 4 2 8 4 O 1030,7 2,2 0 0,0
20.10.2018 23:00:00 5,3 4,4 3,0 9,3 13,1 14,7 3 2 6 3 OZO 1030,8 2,3 0 0,0
20.10.2018 22:00:00 5,9 4,6 3,7 10,1 13,5 14,7 4 2 8 4 O 1030,4 2,6 0 0,0
20.10.2018 21:00:00 6,7 5,3 4,4 10,9 13,9 14,7 2 1 5 3 NO 1029,8 3,2 0 0,0
20.10.2018 20:00:00 7,9 6,3 5,4 12,1 14,2 14,7 5 3 6 3 O 1029,2 3,2 0 0,0
20.10.2018 19:00:00 10,3 7,2 7,0 13,7 14,4 14,7 3 2 12 7 NNO 1028,4 4,0 0 0,0
20.10.2018 18:00:00 13,2 7,3 11,4 15,9 14,4 14,7 3 1 13 7 ONO 1027,2 6 15 0,0
20.10.2018 17:00:00 14,9 7,2 15,9 17,8 14,2 14,8 7 4 16 8 NNO 1026,4 7 60 0,0
20.10.2018 16:00:00 15,6 7,5 19,0 18,9 13,7 14,8 3 2 16 8 NNO 1026,4 7 45 0,0
20.10.2018 15:00:00 15,7 6,7 20,3 19,8 13,0 14,8 5 3 15 8 NNW 1026,3 7 60 0,0
20.10.2018 14:00:00 15,3 7,1 20,6 19,2 12,3 14,8 7 4 16 9 NO 1026,8 6 60 0,0
20.10.2018 13:00:00 14,4 7,3 19,3 17,8 11,6 14,8 5 3 13 7 NO 1026,9 7 60 0,0
20.10.2018 12:00:00 12,9 9,2 16,4 15,2 11,0 14,8 5 3 13 7 NNW 1027,9 4,3 60 0,0
20.10.2018 11:00:00 10,0 7,6 13,5 11,8 10,7 14,8 4 2 10 6 NW 1028,4 3,5 14 0,0
20.10.2018 10:00:00 7,3 6,6 7,9 8,9 10,7 14,8 5 3 9 5 OZO 1029,2 2,1 0 0,0
20.10.2018 09:00:00 4,3 3,8 5,1 7,6 10,9 14,8 4 2 7 4 O 1029,9 2,2 0 0,0
20.10.2018 08:00:00 2,5 2,1 2,0 7,0 11,1 14,8 3 2 9 5 OZO 1029,7 1,9 0 0,0
20.10.2018 07:00:00 3,1 2,6 2,4 7,6 11,4 14,8 5 3 9 5 O 1028,3 1,4 0 0,0
20.10.2018 06:00:00 4,9 4,5 4,7 8,2 11,5 14,8 6 3 9 5 O 1027,3 0,1 0 0,0
20.10.2018 05:00:00 6,3 5,7 4,5 8,9 11,7 14,8 5 3 6 4 OZO 1026,5 0,7 0 0,0
20.10.2018 04:00:00 7,0 6,8 5,9 9,5 11,7 14,8 2 1 7 4 OZO 1026,0 1,1 0 0,0
20.10.2018 03:00:00 7,3 7,0 7,6 9,8 11,8 14,9 2 1 6 3 ONO 1026,0 1,1 0 0,0
20.10.2018 02:00:00 7,3 7,2 7,5 9,6 11,9 14,9 3 2 8 4 OZO 1025,9 0,8 0 0,0
20.10.2018 01:00:00 6,8 6,7 7,1 9,3 12,1 14,9 5 3 9 5 OZO 1026,1 0,1 0 0,0
20.10.2018 00:00:00 5,1 4,7 5,2 8,7 12,4 14,9 5 3 9 5 O 1026,3 0,5 0 0,0
19.10.2018 23:00:00 5,2 4,6 3,7 9,0 12,8 14,9 6 3 9 5 OZO 1025,9 0,9 0 0,0
19.10.2018 22:00:00 5,7 4,9 4,5 9,7 13,1 14,9 8 4 9 5 OZO 1025,3 1,4 0 0,0
19.10.2018 21:00:00 6,6 5,4 4,8 10,5 13,4 14,9 4 2 5 3 O 1024,4 1,6 0 0,0
19.10.2018 20:00:00 9,0 7,6 6,1 11,6 13,7 14,9 3 2 8 4 N 1023,3 2,0 0 0,0
19.10.2018 19:00:00 11,3 9,4 8,1 13,1 13,9 14,9 4 2 10 5 NNO 1022,0 2,1 0 0,0
19.10.2018 18:00:00 13,6 9,8 12,3 14,9 13,9 14,9 2 1 13 7 N 1020,9 3,6 35 0,0
19.10.2018 17:00:00 14,4 9,8 15,5 16,0 13,6 14,9 6 3 14 8 N 1020,2 5 42 0,0
19.10.2018 16:00:00 14,5 9,3 16,1 17,2 13,3 14,9 6 3 18 10 NO 1020,2 6 54 0,0
19.10.2018 15:00:00 14,9 8,5 17,3 17,6 12,7 14,9 8 5 18 10 NO 1020,1 6 60 0,0
19.10.2018 14:00:00 14,5 8,2 18,2 17,6 12,1 14,9 8 5 19 10 NO 1020,4 7 60 0,0
19.10.2018 13:00:00 13,1 8,2 16,5 16,5 11,4 14,9 5 3 12 7 NNW 1021,1 6 60 0,0
19.10.2018 12:00:00 10,9 8,5 13,2 13,8 11,0 14,9 4 2 11 6 WNW 1022,2 3,9 34 0,0
19.10.2018 11:00:00 8,0 7,2 9,8 10,6 10,7 15,0 4 2 7 4 WZW 1023,1 2,2 0 0,0
19.10.2018 10:00:00 5,6 4,9 7,0 8,7 10,7 15,0 3 1 5 3 ZO 1023,5 0,9 0 0,0
19.10.2018 09:00:00 4,4 4,1 4,9 7,2 10,8 15,0 2 1 5 3 O 1023,5 0,1 0 0,0
19.10.2018 08:00:00 2,4 1,7 1,5 6,3 11,1 15,0 3 1 8 4 O 1023,5 2,1 0 0,0
19.10.2018 07:00:00 3,1 2,4 1,2 6,6 11,4 15,0 2 1 7 4 ZZW 1022,9 2,8 0 0,0
19.10.2018 06:00:00 3,6 2,9 2,1 7,0 11,6 15,0 4 2 7 4 OZO 1022,7 2,3 0 0,0
19.10.2018 05:00:00 4,4 3,5 2,5 7,4 11,9 15,0 5 3 7 4 OZO 1022,2 2,3 0 0,0
19.10.2018 04:00:00 5,6 4,8 2,6 7,9 12,2 15,0 5 3 8 4 O 1021,8 2,7 0 0,0
19.10.2018 03:00:00 5,6 4,5 3,2 8,4 12,5 15,0 2 1 5 3 OZO 1021,9 2,0 0 0,0
19.10.2018 02:00:00 7,6 5,9 4,7 8,9 12,7 15,0 4 2 12 6 NNO 1021,4 2,3 0 0,0
19.10.2018 01:00:00 8,9 7,1 5,9 9,3 13,0 15,0 6 4 18 10 NNO 1021,0 3,8 0 0,0
19.10.2018 00:00:00 9,6 7,5 6,5 9,7 13,4 15,0 6 3 16 8 NO 1020,8 4,5 0 0,0
18.10.2018 23:00:00 7,8 6,5 4,6 10,2 13,7 15,0 3 2 9 5 NNO 1021,7 2,9 0 0,0
18.10.2018 22:00:00 9,1 7,5 6,0 10,9 14,1 15,0 3 2 9 5 ZZW 1021,3 4,8 0 0,0
18.10.2018 21:00:00 9,4 7,3 6,5 11,7 14,5 15,0 4 2 9 5 NNO 1020,9 6 0 0,0
18.10.2018 20:00:00 10,4 7,6 6,8 12,9 14,8 15,0 0 0 8 5 N 1020,4 7 0 0,0
18.10.2018 19:00:00 12,6 7,8 8,7 14,4 15,0 15,0 3 2 8 4 NNO 1019,1 11 0 0,0
18.10.2018 18:00:00 15,4 7,5 13,2 16,5 14,9 15,1 4 2 17 9 ONO 1017,5 13 49 0,0
18.10.2018 17:00:00 17,1 7,3 18,3 18,4 14,7 15,1 7 4 19 10 NO 1016,9 16 60 0,0
18.10.2018 16:00:00 17,8 7,8 20,3 19,5 14,2 15,1 9 5 25 14 NO 1016,7 4,8 60 0,0
18.10.2018 15:00:00 18,0 8,3 21,5 19,9 13,5 15,1 11 6 19 10 NO 1016,8 13 60 0,0
18.10.2018 14:00:00 17,7 6,8 21,2 19,3 12,8 15,1 10 5 25 13 NO 1017,1 13 60 0,0
18.10.2018 13:00:00 16,8 7,0 20,6 17,7 12,1 15,1 9 5 21 11 ONO 1017,8 14 60 0,0
18.10.2018 12:00:00 16,0 7,4 18,7 15,4 11,5 15,1 4 2 12 7 NNO 1018,2 22 60 0,0
18.10.2018 11:00:00 11,9 7,1 11,7 11,9 11,3 15,1 0 0 5 3 N 1019,5 13 59 0,0
18.10.2018 10:00:00 8,3 5,9 8,2 9,3 11,3 15,1 3 1 5 3 ZZW 1020,5 10 21 0,0
18.10.2018 09:00:00 5,4 4,6 5,3 7,7 11,4 15,1 4 2 7 4 O 1021,2 5 0 0,0
18.10.2018 08:00:00 4,0 3,2 2,9 7,2 11,6 15,1 4 2 8 4 OZO 1021,0 5 0 0,0
18.10.2018 07:00:00 4,0 3,3 2,6 7,4 11,9 15,1 6 3 8 5 OZO 1020,8 5 0 0,0
18.10.2018 06:00:00 4,2 3,4 2,8 7,8 12,1 15,1 5 3 6 4 OZO 1020,8 4,9 0 0,0
18.10.2018 05:00:00 4,3 3,5 3,2 8,0 12,4 15,1 5 3 9 5 OZO 1020,8 4,3 0 0,0
18.10.2018 04:00:00 4,4 3,5 3,0 8,3 12,7 15,1 5 3 9 5 OZO 1021,0 4,5 0 0,0
18.10.2018 03:00:00 4,8 4,0 3,6 8,6 13,0 15,1 6 3 9 5 OZO 1020,9 4,6 0 0,0
18.10.2018 02:00:00 5,2 4,3 3,4 9,0 13,4 15,1 7 4 8 5 OZO 1020,9 5 0 0,0
18.10.2018 01:00:00 5,8 4,7 4,1 9,5 13,7 15,1 6 3 8 4 OZO 1020,8 6 0 0,0
18.10.2018 00:00:00 5,9 4,7 3,9 10,1 14,1 15,1 4 2 8 5 OZO 1020,7 7 0 0,0
17.10.2018 23:00:00 6,6 5,1 4,5 10,8 14,5 15,1 3 2 9 5 O 1020,5 9 0 0,0
17.10.2018 22:00:00 7,8 5,9 5,3 11,7 14,9 15,2 5 3 9 5 O 1020,1 9 0 0,0
17.10.2018 21:00:00 8,6 6,3 6,0 12,7 15,3 15,2 0 0 9 5 N 1019,4 11 0 0,0
17.10.2018 20:00:00 10,7 6,7 7,4 14,0 15,7 15,2 5 3 8 5 NO 1018,5 16 0 0,0
17.10.2018 19:00:00 14,3 7,3 9,8 15,7 15,9 15,2 5 3 16 9 N 1017,0 24 3 0,0
17.10.2018 18:00:00 17,3 6,8 14,6 18,0 15,9 15,2 4 2 18 10 ONO 1015,9 28 60 0,0
17.10.2018 17:00:00 18,9 6,8 21,5 20,1 15,5 15,2 7 4 19 10 NO 1015,3 9 60 0,0
17.10.2018 16:00:00 19,4 6,6 23,1 21,4 15,0 15,2 7 4 19 10 ONO 1015,4 13 60 0,0
17.10.2018 15:00:00 19,7 5,5 24,1 21,8 14,2 15,2 8 4 19 10 NO 1015,7 8 60 0,0
17.10.2018 14:00:00 19,1 5,4 24,1 21,2 13,4 15,2 7 4 20 11 NO 1016,3 8 60 0,0
17.10.2018 13:00:00 18,4 5,8 23,0 19,7 12,5 15,2 8 4 15 8 ONO 1017,0 19 60 0,0
17.10.2018 12:00:00 16,2 6,1 19,6 17,0 11,9 15,2 4 2 8 5 W 1018,3 20 60 0,0
17.10.2018 11:00:00 13,7 5,7 15,9 13,4 11,5 15,2 2 1 8 4 Z 1019,2 18 60 0,0
17.10.2018 10:00:00 9,9 4,8 9,4 9,9 11,4 15,2 4 2 8 5 Z 1020,5 13 60 0,0
17.10.2018 09:00:00 6,2 3,9 5,0 7,3 11,6 15,2 6 4 11 6 OZO 1021,6 12 41 0,0
17.10.2018 08:00:00 4,0 2,8 2,3 7,0 11,9 15,2 5 3 9 5 O 1022,2 9 0 0,0
17.10.2018 07:00:00 4,4 3,2 2,2 7,4 12,2 15,2 5 3 12 6 OZO 1022,0 9 0 0,0
17.10.2018 06:00:00 5,4 4,0 3,1 7,7 12,4 15,2 8 5 13 7 OZO 1021,5 13 0 0,0
17.10.2018 05:00:00 4,6 3,2 2,7 8,1 12,7 15,2 9 5 13 7 OZO 1021,9 9 0 0,0
17.10.2018 04:00:00 6,4 4,6 3,7 8,4 13,1 15,2 10 5 14 7 OZO 1021,5 14 0 0,0
17.10.2018 03:00:00 4,9 3,7 3,3 8,8 13,4 15,2 9 5 11 6 OZO 1022,2 9 0 0,0
17.10.2018 02:00:00 5,3 3,8 3,7 9,3 13,8 15,2 8 5 13 7 OZO 1022,2 10 0 0,0
17.10.2018 01:00:00 5,1 3,8 3,4 9,8 14,2 15,2 7 4 9 5 OZO 1022,2 9 0 0,0
17.10.2018 00:00:00 5,8 4,3 3,7 10,4 14,6 15,2 5 3 9 5 ZO 1022,0 10 0 0,0
16.10.2018 23:00:00 6,5 4,6 4,3 11,2 15,0 15,2 6 3 11 6 OZO 1021,8 11 0 0,0
16.10.2018 22:00:00 6,8 5,1 5,0 12,1 15,4 15,2 6 3 10 6 OZO 1021,9 10 0 0,0
16.10.2018 21:00:00 8,5 5,7 6,4 13,2 15,9 15,2 9 5 11 6 OZO 1021,2 14 0 0,0
16.10.2018 20:00:00 9,5 6,5 7,4 14,5 16,3 15,2 4 2 7 4 O 1020,6 15 0 0,0
16.10.2018 19:00:00 12,8 7,4 9,5 16,3 16,5 15,2 5 3 7 4 NNO 1019,1 25 9 0,0
16.10.2018 18:00:00 18,5 5,9 15,8 18,8 16,4 15,2 4 2 11 6 ONO 1017,0 32 60 0,0
16.10.2018 17:00:00 20,3 5,2 22,8 20,9 16,1 15,2 5 3 15 8 NO 1016,5 19 60 0,0
16.10.2018 16:00:00 21,0 4,7 25,0 22,1 15,5 15,3 7 4 16 9 NO 1016,2 15 60 0,0
16.10.2018 15:00:00 20,8 3,2 25,2 22,4 14,7 15,3 5 3 16 9 NO 1016,3 30 60 0,0
16.10.2018 14:00:00 20,4 3,3 24,5 22,1 13,9 15,3 6 3 13 7 NNO 1016,6 53 60 0,0
16.10.2018 13:00:00 19,6 4,9 23,3 20,3 13,0 15,3 4 2 9 5 W 1017,1 21 60 0,0
16.10.2018 12:00:00 17,4 4,6 20,8 17,4 12,4 15,3 3 2 8 4 Z 1018,1 23 60 0,0
16.10.2018 11:00:00 14,3 5,4 16,3 13,8 12,0 15,3 4 2 12 7 ZZO 1018,9 26 60 0,0
16.10.2018 10:00:00 11,6 3,9 12,3 10,3 12,0 15,3 5 3 14 7 ZO 1019,7 18 60 0,0
16.10.2018 09:00:00 6,7 3,6 5,5 7,9 12,2 15,3 8 4 11 6 OZO 1021,0 14 40 0,0
16.10.2018 08:00:00 4,2 2,4 2,6 7,6 12,5 15,3 8 4 11 6 OZO 1021,5 13 0 0,0
16.10.2018 07:00:00 5,2 3,0 2,7 7,9 12,8 15,3 6 3 13 7 ZO 1020,8 18 0 0,0
16.10.2018 06:00:00 5,5 3,2 3,0 8,3 13,1 15,3 8 4 14 8 ZO 1020,3 15 0 0,0
16.10.2018 05:00:00 5,0 3,4 3,1 8,7 13,4 15,3 7 4 10 5 OZO 1020,0 14 0 0,0
16.10.2018 04:00:00 5,8 3,8 3,6 9,2 13,7 15,3 6 3 11 6 ZO 1019,7 19 0 0,0
16.10.2018 03:00:00 8,1 4,0 4,4 9,7 14,1 15,3 9 5 13 7 OZO 1018,8 25 0 0,0
16.10.2018 02:00:00 8,3 4,5 5,1 10,2 14,5 15,3 9 5 14 8 ZO 1018,4 24 0 0,0
16.10.2018 01:00:00 8,0 4,9 5,5 10,8 14,9 15,3 10 5 15 8 OZO 1018,1 20 0 0,0
16.10.2018 00:00:00 8,2 5,4 5,4 11,5 15,3 15,3 9 5 12 7 OZO 1017,9 18 0 0,0
15.10.2018 23:00:00 9,2 6,3 6,5 12,3 15,7 15,3 8 5 12 7 OZO 1017,5 15 0 0,0
15.10.2018 22:00:00 8,7 6,4 6,5 13,2 16,1 15,3 7 4 10 6 OZO 1017,3 19 0 0,0
15.10.2018 21:00:00 9,9 6,8 7,8 14,4 16,5 15,3 7 4 9 5 OZO 1016,6 19 0 0,0
15.10.2018 20:00:00 12,1 8,0 8,9 15,8 16,8 15,3 2 1 6 4 O 1015,6 25 0 0,0
15.10.2018 19:00:00 15,9 8,0 12,6 17,8 17,0 15,3 4 2 11 6 ONO 1013,9 33 11 0,0
15.10.2018 18:00:00 20,0 5,0 18,6 19,8 16,9 15,3 5 3 12 7 NW 1012,2 52 52 0,0
15.10.2018 17:00:00 21,5 2,3 23,4 21,4 16,6 15,3 5 3 11 6 N 1011,4 17 50 0,0

tt = temperatuur
td = dauwpunt
tt 5cm = temperatuur 5cm
tt -5cm = temperatuur -5cm
tt -20cm = temperatuur -20cm
tt -100cm = temperatuur -100cm
ff = windsnelheid
fx = windstoten
dd = windrichting
ppp = luchtdruk
vv = zicht
sd = Zonneschijnduur
rr = neerslag

Weerstations in de omgeving